CW3932 Weather Reports


Display with metric or nautical units.
time (UTC)temp
F
wind
direction
speed
MPH
gust
MPH
rain 1hr
in
rain 24hr
in
rain mn
in
humidity
%
barometer
mb
20260905232005 75 285 2.0 9.0 0.00 0.00 0.00 43 1012.5
20260905231004 75 284 2.0 11.0 0.00 0.00 0.00 40 1012.5
20260905225959 76 334 2.0 6.0 0.00 0.00 0.00 43 1012.5
20260905225001 76 274 2.0 10.0 0.00 0.00 0.00 40 1012.6
20260905224000 76 329 2.0 5.0 0.00 0.00 0.00 43 1012.8
20260905223002 76 355 2.0 13.0 0.00 0.00 0.00 43 1012.9
20260905222001 77 332 2.0 9.0 0.00 0.00 0.00 42 1012.9
20260905220957 77 348 2.0 9.0 0.00 0.00 0.00 42 1013.0
20260905215957 78 303 2.0 9.0 0.00 0.00 0.00 40 1013.2
20260905214957 77 275 3.0 10.0 0.00 0.00 0.00 44 1013.2
20260905213957 77 336 2.0 9.0 0.00 0.00 0.00 42 1013.2
20260905212954 77 280 3.0 10.0 0.00 0.00 0.00 40 1013.4
20260905211953 76 11 2.0 9.0 0.00 0.00 0.00 41 1013.4
20260905210955 76 279 2.0 11.0 0.00 0.00 0.00 42 1013.6
20260905205955 76 263 3.0 11.0 0.00 0.00 0.00 43 1013.6
20260905204953 75 295 2.0 8.0 0.00 0.00 0.00 46 1013.7
20260905203949 74 272 2.0 8.0 0.00 0.00 0.00 44 1013.8
20260905203426 74 325 2.0 9.0 0.00 0.00 0.00 44 1013.8
20260905201949 74 329 2.0 6.0 0.00 0.00 0.00 46 1013.9
20260905200948 73 308 1.0 8.0 0.00 0.00 0.00 49 1014.0
20260905200422 73 329 2.0 9.0 0.00 0.00 0.00 52 1014.2
20260905194948 72 0 2.0 11.0 0.00 0.00 0.00 52 1014.3
20260905193950 71 12 2.0 8.0 0.00 0.00 0.00 54 1014.4
20260905192947 71 333 2.0 6.0 0.00 0.00 0.00 53 1014.7
20260905191948 71 61 2.0 10.0 0.00 0.00 0.00 54 1014.8
20260905190941 70 312 2.0 9.0 0.00 0.00 0.00 55 1015.0
20260905185941 70 13 2.0 5.0 0.00 0.00 0.00 55 1015.1
20260905184943 69 311 1.0 5.0 0.00 0.00 0.00 58 1015.2
20260905184422 69 0 2.0 6.0 0.00 0.00 0.00 57 1015.3
20260905182941 68 338 2.0 5.0 0.00 0.00 0.00 57 1015.5
20260905181940 68 248 2.0 9.0 0.00 0.00 0.00 58 1015.6
20260905180941 67 145 2.0 5.0 0.00 0.00 0.00 63 1015.7
20260905175942 67 297 1.0 4.0 0.00 0.00 0.00 65 1015.8
20260905174943 66 306 1.0 8.0 0.00 0.00 0.00 65 1015.9
20260905173939 65 5 1.0 4.0 0.00 0.00 0.00 67 1016.1
20260905172940 64 5 2.0 5.0 0.00 0.00 0.00 68 1016.2
20260905171937 63 336 1.0 4.0 0.00 0.00 0.00 73 1016.3
20260905170935 62 338 1.0 5.0 0.00 0.00 0.00 73 1016.3
20260905165938 60 290 1.0 5.0 0.00 0.00 0.00 75 1016.3
20260905164935 59 24 1.0 4.0 0.00 0.00 0.00 79 1016.5
20260905163934 58 36 1.0 4.0 0.00 0.00 0.00 82 1016.6
20260905162935 57 328 1.0 4.0 0.00 0.00 0.00 84 1016.7
20260905161935 56 331 1.0 4.0 0.00 0.00 0.00 87 1016.8
20260905161407 54 350 1.0 4.0 0.00 0.00 0.00 90 1017.0
20260905155934 53 350 1.0 4.0 0.00 0.00 0.00 92 1016.9
20260905154935 53 349 2.0 5.0 0.00 0.00 0.00 93 1017.0
20260905153937 52 307 1.0 4.0 0.00 0.00 0.00 94 1017.0
20260905152934 51 300 0.0 3.0 0.00 0.00 0.00 94 1017.0
20260905151936 50 300 0.0 3.0 0.00 0.00 0.00 93 1016.9
20260905150934 49 300 0.0 1.0 0.00 0.00 0.00 93 1016.9
20260905150422 49 300 0.0 3.0 0.00 0.00 0.00 92 1017.0
20260905144936 48 303 0.0 1.0 0.00 0.00 0.00 91 1017.1
20260905143939 47 304 0.0 0.0 0.00 0.00 0.00 90 1017.1
20260905142935 47 304 0.0 0.0 0.00 0.00 0.00 89 1017.1
20260905141936 47 304 0.0 0.0 0.00 0.00 0.00 88 1016.9
20260905140935 48 304 0.0 0.0 0.00 0.00 0.00 88 1016.8
20260905135935 48 304 0.0 0.0 0.00 0.00 0.00 88 1016.8
20260905134934 48 304 0.0 0.0 0.00 0.00 0.00 89 1016.8
20260905133935 48 304 0.0 0.0 0.00 0.00 0.00 89 1016.7
20260905132932 49 304 0.0 0.0 0.00 0.00 0.00 89 1016.6
20260905131931 49 304 0.0 0.0 0.00 0.00 0.00 89 1016.6
20260905130930 49 304 0.0 0.0 0.00 0.00 0.00 88 1016.5
20260905125928 50 304 0.0 0.0 0.00 0.00 0.00 88 1016.4
20260905124928 50 304 0.0 0.0 0.00 0.00 0.00 88 1016.5
20260905123927 50 304 0.0 0.0 0.00 0.02 0.00 88 1016.5
20260905122926 51 304 0.0 0.0 0.00 0.02 0.00 88 1016.6
20260905121925 51 304 0.0 0.0 0.00 0.02 0.00 88 1016.6
20260905121408 51 304 0.0 0.0 0.00 0.02 0.00 88 1016.6
20260905115924 51 304 0.0 1.0 0.00 0.02 0.00 88 1016.6
20260905114922 51 304 0.0 0.0 0.00 0.02 0.00 88 1016.7
20260905113924 51 304 0.0 0.0 0.00 0.02 0.00 88 1016.7
20260905112921 51 304 0.0 0.0 0.00 0.02 0.00 88 1016.6
20260905111919 51 304 0.0 1.0 0.00 0.02 0.00 88 1016.5
20260905110914 51 304 0.0 1.0 0.00 0.02 0.00 88 1016.5
20260905105917 51 304 0.0 0.0 0.00 0.02 0.00 87 1016.5
20260905104914 51 304 0.0 0.0 0.00 0.02 0.00 87 1016.6
20260905103914 51 304 0.0 0.0 0.00 0.02 0.00 87 1016.6
20260905102915 51 304 0.0 0.0 0.00 0.02 0.00 87 1016.6
20260905101914 51 304 0.0 0.0 0.00 0.02 0.00 87 1016.5
20260905100912 51 304 0.0 1.0 0.00 0.02 0.00 87 1016.5
20260905100355 51 304 0.0 0.0 0.00 0.02 0.00 87 1016.4
20260905094912 51 304 0.0 0.0 0.00 0.02 0.00 87 1016.4
20260905093907 51 304 0.0 1.0 0.00 0.02 0.00 87 1016.4
20260905092905 51 304 0.0 3.0 0.00 0.02 0.00 87 1016.3
20260905091907 51 302 0.0 3.0 0.00 0.02 0.00 85 1016.4
20260905090908 51 302 0.0 1.0 0.00 0.02 0.00 84 1016.4
20260905090350 51 302 0.0 1.0 0.00 0.02 0.00 84 1016.4
20260905084908 52 302 0.0 1.0 0.00 0.02 0.00 84 1016.3
20260905083906 52 302 0.0 1.0 0.00 0.02 0.00 84 1016.4
20260905082912 52 302 0.0 0.0 0.00 0.02 0.00 84 1016.3
20260905081907 52 302 0.0 0.0 0.00 0.02 0.00 84 1016.3
20260905080906 53 302 0.0 0.0 0.00 0.02 0.00 83 1016.3
20260905075904 53 302 0.0 0.0 0.00 0.02 0.00 83 1016.2
20260905074903 53 302 0.0 0.0 0.00 0.02 0.00 82 1016.1
20260905074353 53 302 0.0 0.0 0.00 0.02 0.00 82 1016.1
20260905072903 54 302 0.0 3.0 0.00 0.02 0.00 82 1016.2
20260905071904 54 302 0.0 1.0 0.00 0.02 0.00 82 1016.1
20260905070906 54 302 0.0 0.0 0.00 0.02 0.00 81 1016.1
20260905065900 54 302 0.0 0.0 0.00 0.02 0.02 82 1015.9
20260905065342 54 302 0.0 1.0 0.00 0.02 0.02 81 1015.8
20260905063902 54 302 0.0 1.0 0.00 0.02 0.02 82 1015.6
20260905062901 54 302 0.0 1.0 0.00 0.02 0.02 81 1015.7
20260905061900 54 302 1.0 4.0 0.00 0.02 0.02 80 1015.8
20260905060902 55 302 0.0 3.0 0.00 0.02 0.02 79 1015.9
20260905055902 55 302 0.0 1.0 0.00 0.02 0.02 79 1015.7
20260905054902 55 302 0.0 1.0 0.00 0.02 0.02 78 1015.6
20260905053901 56 302 0.0 1.0 0.00 0.02 0.02 77 1015.7
20260905052901 56 302 0.0 4.0 0.00 0.02 0.02 77 1015.7
20260905052355 57 309 0.0 1.0 0.00 0.02 0.02 76 1015.6
20260905050901 57 309 0.0 1.0 0.00 0.02 0.02 75 1015.5
20260905045852 58 309 0.0 4.0 0.00 0.02 0.02 75 1015.6
20260905044852 58 309 0.0 3.0 0.00 0.02 0.02 72 1015.6
20260905043853 58 309 0.0 1.0 0.00 0.02 0.02 72 1015.5
20260905042856 59 309 0.0 1.0 0.00 0.02 0.02 71 1015.4
20260905041856 59 309 0.0 1.0 0.00 0.02 0.02 69 1015.3
20260905041337 60 309 0.0 1.0 0.00 0.02 0.02 68 1015.2
20260905035851 60 309 1.0 4.0 0.00 0.02 0.02 68 1015.1
20260905035331 60 309 1.0 6.0 0.00 0.02 0.02 68 1015.0
20260905033848 60 0 1.0 3.0 0.00 0.02 0.02 68 1014.8
20260905033322 61 5 1.0 9.0 0.00 0.02 0.02 66 1014.7
20260905032824 61 5 1.0 5.0 0.00 0.02 0.02 65 1014.6
20260905030843 62 5 1.0 6.0 0.00 0.02 0.02 65 1014.5
20260905025844 62 304 1.0 3.0 0.00 0.02 0.02 64 1014.4
20260905024840 63 333 1.0 4.0 0.00 0.02 0.02 63 1014.4
20260905023840 63 333 0.0 4.0 0.00 0.02 0.02 63 1014.3
20260905022842 64 324 1.0 8.0 0.00 0.02 0.02 62 1014.3
20260905021842 64 265 1.0 3.0 0.00 0.02 0.02 62 1014.2
20260905020841 64 265 1.0 5.0 0.00 0.02 0.02 60 1014.0
20260905015838 64 288 1.0 8.0 0.00 0.02 0.02 61 1014.1
20260905014841 64 280 3.0 11.0 0.00 0.02 0.02 60 1014.0
20260905013838 64 277 2.0 11.0 0.00 0.02 0.02 62 1013.9
20260905013751 64 355 2.0 6.0 0.00 0.02 0.02 61 1013.9
20260905011840 65 322 1.0 5.0 0.00 0.02 0.02 63 1013.9
20260905010837 65 5 2.0 6.0 0.00 0.02 0.02 62 1013.7
20260905005838 65 22 2.0 10.0 0.00 0.02 0.02 64 1013.8
20260905004836 65 276 1.0 9.0 0.00 0.02 0.02 64 1013.8
20260905003836 65 345 2.0 11.0 0.00 0.02 0.02 62 1013.7
20260905002836 65 10 2.0 9.0 0.00 0.02 0.02 62 1013.7
20260905002321 66 309 3.0 11.0 0.00 0.02 0.02 61 1013.7
20260905000840 67 280 3.0 13.0 0.00 0.02 0.02 59 1013.6
20260904235834 67 355 4.0 16.0 0.00 0.02 0.02 58 1013.5
20260904234833 68 250 4.0 11.0 0.00 0.02 0.02 57 1013.4
20260904233834 68 323 3.0 11.0 0.00 0.02 0.02 58 1013.2